Theta_e
306 306 306 306 304 303 303 302 301 300 300 302 302 301 301 301 304 306 306 305 304 303 302 300 300 300 299 299 299 298 298 298 297 297 296 297 297 296 296 296 296 296 296 296 297 297 298 298 298 298 298 299 299 300 300 300 300 300 299 299 299 298 298 298 298 299 300 300 300 300 300 301 302 302
307 306 306 306 306 305 304 303 301 300 300 302 302 301 301 300 302 303 304 304 303 302 301 300 300 300 299 299 299 298 298 298 297 298 297 297 297 297 297 296 296 296 296 296 296 296 296 297 297 297 298 299 299 299 299 299 299 299 298 297 296 296 296 297 297 298 298 299 299 299 300 300 300 301
307 307 307 307 306 304 303 303 303 302 302 302 302 302 301 301 301 301 302 304 303 301 301 300 300 300 300 299 299 299 298 298 298 298 298 298 298 297 297 296 297 296 296 296 296 295 296 295 296 297 298 298 298 299 298 298 298 298 297 296 296 296 296 297 297 297 298 298 299 299 300 300 300 301
307 307 306 306 307 305 304 304 304 304 303 302 301 301 302 301 302 301 302 303 302 301 300 300 300 300 300 300 299 299 299 299 299 299 298 298 297 297 297 296 296 296 296 296 296 296 296 296 296 296 297 297 298 298 298 298 298 297 297 296 296 296 296 297 297 297 298 298 299 299 299 300 300 300
307 307 307 307 307 306 304 305 306 304 304 304 302 302 303 302 302 301 301 301 301 300 299 300 300 300 300 300 300 299 300 299 299 298 298 297 297 297 297 296 296 295 296 296 296 296 296 296 296 297 297 297 298 298 298 298 298 298 297 297 296 296 296 296 296 297 297 298 298 299 299 299 300 300
306 306 307 307 307 306 303 303 305 304 304 304 303 303 303 302 302 301 300 300 300 300 300 300 300 301 301 300 300 300 300 299 298 298 297 296 296 296 296 296 295 295 296 296 296 297 296 297 297 298 298 298 298 298 298 299 299 298 298 297 297 297 296 296 296 296 297 297 298 298 298 299 299 299
307 306 306 306 306 306 305 303 303 303 303 303 302 302 303 302 302 301 301 300 299 300 300 300 301 301 301 301 301 300 299 298 298 297 297 297 296 296 296 295 295 295 296 297 297 297 297 297 298 298 299 299 298 298 299 299 299 299 298 298 298 297 297 296 296 296 296 297 297 297 297 297 297 297
307 307 307 305 305 306 306 305 303 303 303 304 303 303 303 303 303 302 301 300 300 300 300 300 301 301 301 301 301 300 299 298 298 298 298 297 297 296 295 294 294 295 296 297 296 296 297 298 299 299 299 299 299 299 299 299 299 299 299 299 299 298 297 297 296 296 296 296 296 296 296 296 296 296
307 307 307 306 306 306 306 306 305 305 305 305 305 305 304 304 304 303 302 301 300 300 301 301 301 301 302 302 301 300 299 298 298 298 298 298 297 296 295 295 294 295 296 296 296 296 297 299 299 299 299 299 299 299 299 300 300 300 300 299 299 299 298 297 297 297 297 296 296 296 296 296 295 296
307 307 307 307 307 307 307 307 306 306 306 305 305 306 305 304 304 304 303 302 302 301 301 301 301 301 302 301 300 299 299 298 298 299 298 298 297 297 296 295 294 294 294 295 295 296 297 298 298 299 299 299 299 299 299 300 300 300 300 300 300 299 298 298 297 297 297 296 296 296 296 296 295 296
307 306 306 306 306 306 307 307 307 306 306 305 305 305 305 305 305 305 305 304 303 302 302 302 301 301 301 301 300 299 298 298 299 298 298 298 297 297 296 295 294 293 293 294 295 296 297 298 298 299 299 299 299 299 299 300 300 300 300 300 299 299 298 298 298 297 297 297 296 296 296 296 296 296
307 307 306 306 305 306 306 306 306 306 306 305 305 305 306 306 306 306 306 305 304 303 302 301 301 301 301 300 299 298 297 298 299 298 298 298 297 296 296 295 294 293 293 293 295 295 296 298 299 299 300 299 299 300 300 300 300 300 300 299 299 299 298 298 297 297 297 297 296 296 296 297 296 296
307 306 306 306 306 306 306 306 306 306 305 305 305 306 306 306 306 306 306 305 304 303 302 301 301 300 300 299 298 297 297 298 298 298 298 297 296 296 295 295 294 293 293 293 294 295 296 297 298 299 300 299 299 300 300 300 300 300 299 299 298 298 298 298 298 297 297 297 296 296 297 297 297 297
308 307 306 306 306 305 306 305 305 305 305 304 304 304 304 303 303 304 305 305 303 302 301 301 300 299 299 298 297 297 296 297 298 298 298 296 296 295 295 294 293 293 293 293 294 294 296 297 298 300 300 299 299 300 300 300 300 299 299 298 298 298 298 298 298 297 297 297 297 297 297 297 297 297
309 308 307 306 306 305 305 305 305 304 304 303 302 301 300 299 297 298 300 301 301 300 301 300 299 298 298 297 296 296 295 296 298 298 297 296 295 295 294 294 293 292 292 293 294 295 296 297 299 300 299 299 299 299 300 299 299 299 298 298 298 298 298 298 298 298 298 297 297 297 297 297 297 297
309 309 308 307 306 306 305 305 304 304 303 302 302 301 299 298 295 294 295 296 296 297 298 299 298 297 297 296 295 295 295 297 298 297 296 295 295 294 294 294 293 292 292 294 294 295 296 297 299 299 299 299 299 299 299 299 298 298 297 297 298 299 299 299 298 298 298 298 297 298 298 298 297 297
310 309 308 308 307 307 306 306 305 304 304 303 303 303 302 301 300 299 298 297 297 296 296 297 297 296 295 295 294 293 294 297 298 297 295 295 294 294 293 293 293 293 293 295 295 296 296 297 299 300 299 299 299 299 299 298 298 297 297 297 298 298 299 299 299 299 298 298 298 298 298 298 297 296
311 310 308 307 307 307 307 307 306 305 305 304 304 304 304 303 302 302 302 301 301 299 298 297 296 295 294 294 293 293 295 297 297 296 294 293 293 294 293 293 293 294 295 296 296 296 296 298 299 299 299 298 298 298 298 298 298 297 297 297 298 299 299 299 300 299 299 299 299 298 297 296 296 295
312 311 309 308 307 306 306 306 306 306 305 305 305 305 304 304 304 303 304 304 304 303 301 300 298 297 296 295 294 295 296 297 296 294 292 291 293 294 294 294 294 295 296 296 296 295 297 299 299 299 298 298 298 298 298 298 298 297 297 297 298 299 299 300 300 300 299 299 298 297 296 295 295 295
313 312 310 309 307 306 306 305 306 306 306 306 305 305 305 305 305 306 306 306 306 305 304 303 302 301 299 297 295 295 295 295 293 291 290 291 293 294 294 294 295 295 296 295 295 296 298 299 298 298 298 297 297 297 298 298 298 297 297 297 298 299 300 300 299 299 298 298 298 297 295 295 295 296
313 312 311 310 308 307 306 306 305 305 305 305 305 306 306 305 305 305 305 304 303 303 303 303 303 301 300 298 296 295 294 291 289 289 291 293 294 294 294 295 295 296 296 295 296 298 298 298 298 297 297 297 297 298 298 298 298 297 297 298 299 299 300 300 299 298 298 298 298 296 295 295 296 296
313 313 312 311 309 308 307 306 305 305 304 304 304 304 304 304 303 303 302 301 301 301 302 302 301 300 299 298 297 296 293 290 288 290 293 294 295 295 295 296 296 295 294 294 296 297 297 297 297 297 297 297 298 298 298 298 298 297 297 298 299 300 301 301 299 298 298 298 298 295 294 295 296 295
312 312 312 311 310 308 308 306 306 305 304 303 303 302 302 302 302 302 301 301 301 301 302 301 300 299 298 298 298 296 293 290 288 291 294 295 296 296 296 296 295 294 294 294 294 295 296 297 297 297 297 298 298 298 298 298 298 297 298 298 299 300 301 301 299 298 298 299 298 295 294 295 295 295
312 312 312 312 310 309 309 307 306 305 304 303 302 302 301 301 302 301 301 301 301 301 302 301 300 300 299 298 298 296 294 292 290 291 295 296 296 296 296 295 294 294 294 293 294 295 296 296 297 297 298 298 298 298 298 298 298 297 298 298 299 300 301 300 300 298 298 299 297 294 294 295 295 295
312 313 313 312 311 310 309 308 307 305 304 302 301 300 300 300 301 301 301 301 301 301 301 301 300 300 299 298 297 296 296 295 292 292 295 296 296 295 295 294 294 294 293 293 293 295 296 296 296 297 298 298 298 298 298 298 298 298 298 298 299 300 301 300 300 299 298 298 297 294 294 294 294 295
313 313 313 313 312 311 310 309 308 306 305 303 301 299 298 298 299 300 299 298 298 298 299 299 299 299 298 297 295 295 297 296 294 292 294 296 295 295 294 294 294 294 293 293 293 295 296 296 297 298 299 299 298 298 298 298 298 298 298 298 299 300 301 301 300 299 298 299 298 296 295 296 295 296
313 313 314 313 313 311 310 309 308 306 305 303 301 300 298 297 297 296 295 294 294 295 296 297 297 296 296 295 294 294 296 297 295 293 293 294 295 294 294 294 294 294 294 293 294 295 295 296 297 298 299 299 299 298 298 298 298 298 298 298 299 300 301 301 301 301 300 300 300 298 297 297 297 297
314 314 314 314 313 312 311 309 307 305 304 302 301 300 298 296 295 293 292 292 292 293 294 294 294 294 293 292 292 293 295 296 296 293 292 293 294 294 294 294 295 295 294 294 294 294 295 296 296 297 299 300 299 299 299 298 299 298 298 298 298 299 300 301 302 302 301 301 300 299 299 299 299 298
314 314 314 313 312 311 310 308 305 304 303 301 300 299 298 297 295 295 295 294 292 292 293 293 293 293 292 292 292 294 295 297 297 294 293 293 294 294 294 295 295 295 294 294 294 295 295 296 297 298 300 300 300 300 299 299 299 298 298 298 298 298 300 301 301 302 302 301 301 301 300 301 300 299
313 312 312 311 310 309 308 306 304 303 302 301 300 299 298 298 298 298 298 297 295 294 294 294 294 294 294 293 293 294 296 298 297 295 293 294 294 294 294 295 295 294 294 294 295 296 297 299 299 299 300 300 300 300 300 299 299 298 298 298 298 298 299 300 301 301 301 301 301 301 301 301 300 300
312 311 310 309 308 307 306 305 303 302 301 301 300 299 299 299 300 299 299 298 297 297 296 296 295 295 295 294 294 296 297 298 297 295 294 294 294 294 294 295 295 294 294 294 295 297 299 300 300 300 300 300 300 301 300 299 298 298 297 297 297 297 298 299 300 300 300 301 301 302 302 302 301 302
312 311 309 308 307 307 305 304 303 302 301 301 300 300 300 300 300 300 299 298 298 297 297 296 296 296 296 295 296 297 298 297 297 296 295 294 294 294 294 295 294 294 294 294 296 298 300 300 300 300 300 300 301 301 300 298 298 297 297 296 296 296 297 298 299 300 300 300 301 301 302 302 303 303
310 309 308 307 307 306 305 304 303 302 302 301 301 301 301 301 300 299 299 298 298 298 297 297 297 296 296 296 297 298 298 298 297 296 295 294 294 294 295 294 294 294 294 295 295 297 299 300 300 300 300 300 300 300 299 298 297 297 297 296 295 295 296 297 298 299 299 299 300 301 302 302 302 303
308 307 307 307 306 306 305 305 304 304 303 303 303 303 303 302 301 300 300 299 299 299 298 297 297 296 296 297 298 299 299 298 297 296 295 294 294 294 295 294 294 294 294 295 295 296 298 300 300 300 300 300 301 300 299 297 296 296 296 295 295 295 295 296 297 299 299 299 300 301 302 302 302 302
308 307 307 308 308 307 307 306 306 306 305 305 304 304 304 303 302 301 301 301 300 300 299 298 297 297 298 298 299 300 300 298 297 296 295 294 294 294 294 294 294 294 294 295 295 295 298 300 300 300 300 300 301 300 299 297 296 296 295 295 294 294 294 295 297 298 299 299 300 301 301 301 301 301
308 307 308 309 309 309 309 309 308 308 307 306 306 306 305 305 304 303 303 302 302 300 299 299 299 299 299 300 300 301 300 298 297 296 295 294 294 295 294 294 294 294 294 295 295 295 297 299 300 300 300 300 300 300 299 297 296 296 295 294 294 294 294 295 297 298 298 299 299 299 300 300 300 300
308 307 308 308 308 309 309 309 309 309 308 308 308 307 307 306 305 304 304 303 302 301 300 300 300 300 301 301 301 300 299 298 296 295 295 294 294 294 294 294 294 294 294 294 294 294 295 298 300 300 300 300 300 300 299 298 297 296 295 294 294 294 293 294 296 297 298 299 299 299 299 299 299 300
307 307 307 308 308 308 308 308 309 309 308 308 308 308 308 307 306 306 306 305 305 304 303 302 301 301 302 302 301 300 299 297 296 295 295 294 294 294 294 294 294 293 293 293 293 293 295 298 300 300 300 300 300 300 299 298 297 296 295 294 294 294 293 293 294 296 298 298 299 299 299 299 299 300
308 308 308 308 308 309 309 309 309 309 309 309 310 310 309 309 308 308 308 308 307 307 306 305 303 303 303 302 301 300 299 298 297 296 295 294 294 294 294 294 293 293 292 292 292 293 295 299 300 299 299 300 300 299 299 298 297 296 295 294 294 294 293 293 294 295 297 298 298 300 300 300 300 301
310 310 309 309 309 310 310 310 310 310 310 311 311 311 310 310 310 310 310 310 309 308 307 306 305 304 304 303 301 300 299 298 297 296 295 295 295 294 294 294 293 292 291 291 291 293 297 300 300 299 299 299 299 299 299 299 298 296 294 294 294 293 293 293 293 295 296 297 298 299 300 300 301 302
312 311 311 311 311 311 311 311 311 311 311 311 311 311 311 311 311 311 310 310 309 309 308 307 306 305 304 303 302 300 300 299 297 296 295 295 295 295 294 293 292 291 291 292 292 294 297 299 299 299 299 299 299 299 299 298 297 295 294 294 293 293 293 293 294 294 295 297 297 298 299 300 301 302
312 311 312 312 312 311 311 311 311 311 311 311 311 311 310 310 310 310 310 309 309 309 308 307 306 305 304 303 302 301 301 299 297 296 295 295 295 295 294 293 292 291 291 292 293 293 295 297 299 299 299 299 299 298 297 297 296 295 294 294 293 293 293 294 294 294 295 296 296 297 297 299 299 300
310 309 309 309 309 308 307 307 307 307 307 307 308 308 308 308 308 308 308 308 308 308 307 307 306 305 304 303 302 301 301 299 297 296 295 295 294 294 294 292 292 292 292 292 292 292 293 295 298 300 299 299 299 298 297 296 296 295 294 294 293 293 293 293 294 294 294 295 296 296 296 297 298 299
306 306 306 305 304 303 303 303 303 304 304 304 305 305 305 306 306 307 307 307 307 306 306 305 305 304 303 303 302 301 300 299 297 296 295 295 294 294 293 292 292 291 291 290 291 292 292 294 297 299 299 299 299 298 297 296 296 295 294 293 293 293 293 293 293 294 294 295 296 296 296 297 298 299
303 303 303 302 302 302 302 302 302 302 303 304 304 304 304 304 304 305 305 305 305 305 304 304 304 304 303 302 301 300 299 298 296 295 295 295 294 294 293 292 291 290 290 290 291 292 292 293 296 298 299 299 299 298 297 296 295 295 294 294 293 293 293 293 293 294 294 295 296 296 296 297 298 299
Wind_Speed
4 3 3 3 2 1 1 1 0 0 2 3 0 2 2 1 2 2 3 4 6 8 9 10 11 12 13 14 14 14 14 14 14 14 16 18 19 19 19 21 24 23 20 20 22 23 21 20 20 22 23 23 23 23 23 22 21 21 20 20 21 21 22 23 23 22 22 22 22 21 21 22 22 21
4 4 3 3 3 3 3 2 1 2 2 3 2 2 2 2 2 1 2 4 6 9 11 11 13 15 15 14 15 15 14 14 14 15 18 19 18 19 21 22 22 20 20 22 23 22 20 20 22 22 23 23 24 24 23 22 20 19 19 19 20 21 21 21 21 20 21 21 21 21 20 20 20 20
5 5 5 5 6 6 4 3 3 3 3 2 3 5 5 4 5 5 4 4 6 10 13 14 15 15 15 15 15 15 14 14 15 17 19 18 18 19 21 21 20 20 22 21 20 21 21 24 26 25 23 23 23 23 23 21 19 18 18 18 19 19 19 19 20 20 20 20 20 20 20 19 19 19
7 7 7 7 7 7 6 6 6 6 6 7 5 5 6 7 8 9 9 6 8 13 15 15 16 15 15 15 14 15 15 15 16 17 17 18 19 20 20 20 20 21 23 22 21 23 25 28 28 26 24 22 21 22 23 21 19 18 19 19 18 18 17 18 19 19 19 19 19 18 19 18 18 18
9 9 9 9 9 8 7 8 9 8 8 10 10 7 8 11 10 10 11 9 10 14 15 14 15 15 14 14 14 15 16 16 17 17 17 18 19 20 20 20 21 23 24 23 24 25 28 29 27 25 24 22 21 22 24 23 21 20 20 20 19 18 17 17 18 18 18 19 18 18 18 18 18 18
11 11 11 10 10 11 9 8 10 10 8 9 11 10 10 11 10 8 10 10 9 12 15 15 15 14 13 14 15 15 15 16 18 18 18 19 19 19 19 21 24 25 24 24 24 25 27 27 25 23 23 22 21 22 24 24 23 22 21 21 20 18 17 16 17 17 17 17 17 17 17 17 17 17
12 12 12 12 11 12 11 10 11 12 9 8 9 10 9 9 9 8 9 10 10 12 15 14 15 15 14 15 15 14 14 16 18 19 19 19 18 18 20 23 26 26 24 24 24 25 26 25 21 20 21 22 22 22 24 24 23 22 21 20 20 19 17 16 16 16 16 16 16 16 16 16 17 17
14 15 15 13 12 13 13 12 12 12 11 10 10 10 10 9 9 10 9 10 10 13 15 15 15 15 16 16 14 14 15 16 17 19 20 19 18 18 21 25 26 26 24 23 23 25 25 21 18 20 22 23 22 22 23 23 21 20 20 20 20 20 18 16 16 16 17 18 18 18 18 18 17 16
15 16 16 15 14 14 15 14 13 13 12 12 12 12 11 10 10 10 9 10 11 13 15 16 16 16 17 16 14 14 15 17 18 19 19 18 19 20 22 26 27 26 24 24 24 25 23 20 20 22 22 21 21 21 22 20 20 21 22 22 21 20 18 17 18 18 19 20 20 21 21 21 20 18
16 16 16 16 15 16 17 16 15 14 13 13 13 12 12 11 11 11 11 11 12 14 16 16 17 17 16 14 15 15 15 18 20 19 18 19 20 22 23 26 28 27 26 26 25 23 23 23 23 22 20 19 19 20 20 21 22 23 21 20 19 18 18 18 20 21 21 22 22 22 22 22 22 21
17 17 17 16 16 17 17 17 16 15 14 14 13 13 12 12 12 13 12 12 12 14 15 15 16 16 15 14 14 15 15 17 18 18 19 20 22 24 25 26 27 27 27 26 24 23 24 25 25 22 20 19 18 19 21 23 23 21 19 19 19 20 20 21 21 21 22 24 24 23 22 22 22 22
18 18 18 18 18 18 18 18 17 16 15 15 14 14 13 13 13 13 13 12 13 14 14 15 15 15 15 14 14 15 16 16 16 17 18 20 22 25 26 26 26 26 27 25 24 25 26 26 26 23 20 19 18 19 21 20 19 18 20 22 22 22 22 22 22 23 24 25 25 24 23 23 23 22
18 18 18 18 18 18 18 18 17 17 17 16 15 13 12 12 12 12 12 12 13 14 13 13 14 14 15 14 13 14 15 15 17 18 19 20 21 24 26 27 26 24 24 25 27 28 29 28 28 25 20 19 19 19 19 18 18 21 24 25 25 24 24 24 25 26 26 27 26 25 25 24 24 24
19 19 19 18 18 18 18 18 19 19 20 19 18 16 15 14 13 12 11 11 12 13 13 13 12 13 15 13 12 13 14 16 18 19 19 21 22 22 22 25 28 25 22 25 29 31 30 29 28 24 20 19 19 19 20 21 23 27 29 29 27 26 25 25 25 26 27 28 28 27 26 25 25 25
20 19 19 18 18 18 19 20 21 22 23 22 22 21 21 21 20 18 17 15 14 13 14 14 13 13 15 15 13 13 15 16 17 18 20 21 21 20 18 19 25 27 26 26 29 32 31 28 26 22 20 20 21 21 22 24 26 30 31 29 25 25 25 26 26 27 28 27 27 27 27 26 26 26
19 19 19 19 19 18 19 21 22 24 24 23 23 22 22 22 22 21 21 21 19 17 15 15 15 16 17 17 15 14 14 15 17 19 19 19 20 21 19 18 23 29 31 28 29 31 30 26 23 21 21 22 22 22 24 26 29 33 33 28 26 27 27 26 26 28 28 28 27 27 27 27 26 26
20 19 18 18 19 18 17 19 21 22 22 21 20 19 19 19 20 20 21 22 23 22 20 19 21 21 20 18 17 16 14 16 18 17 18 20 21 22 22 23 27 31 32 30 28 27 26 25 22 22 22 23 24 25 26 29 33 35 33 28 27 28 26 24 26 27 28 28 27 26 27 28 28 27
21 21 20 19 19 18 17 17 19 20 19 18 18 18 19 20 20 21 22 22 23 24 23 24 25 25 22 20 21 19 16 16 17 17 20 22 22 23 26 28 30 29 28 27 24 21 22 24 22 21 22 24 26 27 30 33 35 34 32 28 26 25 25 26 28 29 28 27 25 25 25 27 27 26
22 21 21 20 20 19 18 18 18 19 19 18 18 18 19 20 21 22 22 22 22 23 23 23 24 24 22 21 21 20 18 18 20 22 24 25 24 25 26 26 26 24 22 22 20 18 20 21 21 22 23 24 27 30 32 34 34 33 31 28 26 25 26 27 29 28 25 23 23 23 22 22 23 23
22 22 21 21 21 20 19 19 18 19 20 19 19 19 19 19 19 19 19 18 19 20 20 21 22 21 21 20 19 20 20 22 24 24 25 26 24 22 20 21 22 21 19 21 21 19 18 18 20 24 26 26 28 32 32 32 33 33 31 28 27 26 26 30 30 25 20 20 22 21 20 19 18 17
23 22 22 22 21 21 21 21 20 20 20 21 21 20 19 19 19 19 19 18 20 22 22 22 21 20 20 19 19 20 22 22 22 21 22 23 21 17 15 15 18 20 21 21 19 16 17 18 21 24 27 28 29 29 29 31 33 34 31 28 27 27 30 32 29 21 18 21 22 20 16 14 12 11
24 23 23 22 22 22 22 21 21 21 22 23 23 23 21 21 22 22 21 20 20 21 20 19 19 20 20 21 21 22 23 22 19 19 21 21 18 16 14 15 18 21 22 20 16 15 18 20 21 23 25 27 27 25 25 30 35 34 31 29 28 29 32 31 23 17 18 21 20 17 12 9 8 6
24 24 23 23 24 25 24 23 22 21 22 24 25 24 22 22 23 23 20 18 18 19 19 19 21 21 22 23 23 23 24 23 18 18 20 19 18 17 17 18 17 14 15 18 18 18 20 21 22 22 18 15 19 23 25 30 35 33 30 30 30 30 31 27 19 15 17 19 19 14 9 7 5 5
23 24 24 24 24 25 26 25 25 24 23 24 25 24 23 23 23 21 17 16 16 16 17 18 20 21 22 22 22 22 24 23 19 17 17 18 18 18 18 20 17 14 18 23 21 20 21 21 23 24 17 10 14 22 27 31 33 30 28 31 31 29 29 27 21 17 17 18 17 11 7 6 6 8
21 21 22 23 24 24 24 25 26 26 25 25 25 26 26 25 22 18 15 15 15 15 16 17 19 21 22 22 21 21 22 21 18 16 16 17 18 18 20 21 20 20 26 28 23 22 23 23 23 25 21 14 14 19 25 29 31 29 28 30 30 27 27 27 23 18 17 16 14 9 5 4 6 9
20 20 20 21 22 23 23 23 24 25 25 24 25 26 26 25 23 20 19 19 19 19 19 20 22 23 22 21 21 20 21 22 20 17 16 17 18 19 21 22 22 24 28 29 26 25 25 25 24 22 19 15 14 16 19 23 28 29 29 29 28 27 26 26 23 19 15 14 11 8 4 1 4 7
18 19 19 20 21 21 21 21 23 24 23 24 24 23 22 22 22 23 23 24 24 23 22 21 23 24 23 22 22 21 22 23 23 20 17 17 18 19 21 23 24 26 28 28 28 27 26 25 25 24 21 18 14 12 14 18 23 27 28 28 28 26 26 25 23 19 16 12 9 5 2 2 3 6
15 16 17 17 17 17 17 16 18 21 22 22 22 21 19 19 19 21 23 25 25 24 23 24 26 26 25 24 24 24 24 24 23 21 18 19 19 19 20 22 23 24 26 28 29 29 27 27 28 26 22 15 11 10 12 15 20 23 24 25 27 26 25 25 24 22 18 13 9 8 4 2 3 5
16 16 16 14 13 13 12 12 14 18 20 21 21 20 18 17 18 21 23 25 25 24 25 26 27 27 26 24 23 24 24 24 23 21 20 20 19 17 18 20 22 23 25 27 29 30 29 28 29 25 16 11 12 15 15 15 17 20 21 21 24 24 24 24 25 24 22 18 13 10 9 6 5 5
24 20 17 15 14 13 12 11 12 16 18 19 20 19 19 19 21 24 25 26 26 26 27 27 27 27 26 24 22 23 23 23 22 21 20 20 18 16 16 18 21 24 24 24 27 29 24 19 18 17 11 10 15 17 15 13 15 18 19 19 21 21 22 23 24 23 23 23 18 10 6 5 4 5
30 27 23 20 19 18 16 14 14 15 17 19 20 21 22 24 27 29 29 28 27 28 27 27 27 27 25 22 21 22 23 23 22 20 19 19 18 16 15 17 20 22 23 23 24 22 14 8 8 9 8 11 14 14 12 11 13 16 18 19 19 19 20 22 22 22 23 23 19 12 6 3 2 4
29 29 27 26 23 22 21 20 19 19 20 22 23 24 26 29 30 31 29 28 28 29 27 27 27 26 24 23 21 22 22 22 21 20 19 18 18 15 13 15 18 20 22 23 21 17 11 8 6 5 5 9 12 12 10 10 11 13 16 18 19 19 18 20 20 21 22 22 19 15 9 4 4 6
20 21 21 22 22 21 21 21 21 21 21 22 24 26 28 29 28 28 27 27 28 28 27 27 27 26 24 23 21 21 22 22 21 21 19 18 17 14 12 14 17 19 22 22 19 17 14 7 3 2 5 9 11 11 8 8 9 11 14 17 19 20 19 19 19 21 21 19 19 18 10 4 3 6
11 12 12 14 16 16 17 18 19 19 20 21 23 25 26 26 26 25 25 25 25 25 25 26 27 25 23 22 21 20 20 20 19 19 18 18 16 13 12 14 17 19 21 19 17 19 16 6 4 1 6 9 11 10 6 6 9 11 12 14 17 19 19 19 18 20 19 15 15 17 11 5 5 6
9 10 10 12 13 13 14 17 18 18 19 20 22 22 21 22 22 23 24 24 24 24 24 24 24 23 21 21 20 19 19 18 17 16 16 16 15 13 13 14 16 19 20 18 17 18 16 7 2 2 6 7 8 7 4 5 8 11 12 14 17 18 19 18 16 18 17 13 12 14 12 8 8 9
11 11 11 12 12 13 14 16 16 17 18 19 20 20 19 19 20 21 22 23 24 24 23 21 21 21 21 21 19 18 17 17 16 15 15 15 14 13 12 14 17 19 20 18 15 16 17 11 4 1 4 4 4 4 3 4 7 10 11 14 17 18 19 18 15 15 15 12 9 11 11 9 10 12
12 13 14 14 15 15 16 16 15 15 15 16 17 17 16 16 17 19 20 20 21 23 22 21 20 20 20 19 18 17 17 17 16 16 16 15 14 12 11 14 17 17 17 16 14 15 20 17 6 3 4 3 1 2 3 5 9 10 9 12 16 18 19 18 15 14 14 12 10 9 9 8 9 9
13 14 14 15 16 16 16 16 16 16 16 16 16 14 13 14 16 18 18 18 18 20 20 20 20 20 19 17 16 16 16 16 16 16 16 15 14 12 12 14 14 13 14 15 14 17 22 17 5 4 4 3 2 2 3 5 8 8 8 12 14 16 18 18 15 13 13 13 11 10 9 7 7 7
14 14 14 14 15 15 15 15 15 15 15 15 14 14 15 17 19 19 19 18 18 18 19 20 20 18 17 17 17 16 16 16 16 16 16 15 15 13 13 12 11 10 12 14 15 19 19 9 3 4 1 2 2 3 5 6 7 6 7 12 13 13 17 19 15 12 12 13 12 10 9 8 7 6
13 13 13 14 13 13 13 14 14 14 14 14 14 15 16 17 17 17 18 18 17 16 17 19 19 17 16 16 16 16 17 17 17 16 15 15 14 14 12 10 9 10 12 13 17 19 14 2 4 2 1 1 2 6 6 6 5 4 6 12 13 12 14 16 16 14 12 13 13 11 9 9 8 5
11 12 13 13 12 12 12 13 14 14 13 13 14 14 14 14 15 16 17 17 16 15 15 14 13 12 14 15 15 16 17 17 16 15 15 14 14 13 12 11 10 11 12 13 16 17 12 4 1 2 3 3 4 6 4 3 3 4 7 11 12 11 11 13 15 14 12 12 13 10 8 9 8 5
8 9 9 9 9 9 9 10 10 10 11 12 12 13 14 14 15 15 15 16 16 17 17 15 13 12 13 14 14 15 17 17 16 15 15 15 14 13 12 12 12 11 12 13 14 14 13 10 5 1 3 3 3 4 4 3 3 5 7 8 9 10 10 10 13 13 11 10 11 9 7 8 8 6
6 8 8 8 8 9 11 11 12 12 13 14 14 14 15 15 15 15 15 15 16 15 14 13 13 13 13 14 14 14 16 16 15 15 15 16 15 14 12 11 11 10 10 11 12 12 14 15 9 5 5 3 3 2 3 3 3 4 5 6 8 9 8 8 10 10 10 9 8 7 6 5 4 4
12 12 13 13 14 14 15 15 15 15 15 16 16 16 16 16 16 16 15 15 15 15 13 13 13 12 12 12 13 14 14 15 15 15 16 17 17 15 14 12 10 11 11 11 12 13 14 17 13 4 4 1 0 2 2 0 1 2 3 5 6 7 7 8 8 8 10 10 9 7 6 4 2 2
11 10 12 13 13 13 13 13 14 14 14 14 15 15 15 16 17 17 16 16 17 16 15 14 15 14 12 12 12 13 13 14 15 15 16 17 17 16 15 13 12 11 10 10 11 13 14 16 15 8 2 3 3 4 4 3 1 1 1 2 3 4 5 7 8 9 11 13 11 8 6 4 4 5
Wind_Direction
166 161 160 154 165 176 174 158 100 200 152 130 61 339 14 6 314 319 311 312 312 317 333 333 315 313 317 315 313 310 308 307 305 310 319 318 316 315 311 310 311 313 314 311 308 307 305 305 308 312 315 318 319 320 319 315 312 310 309 307 305 304 303 302 303 302 299 297 296 294 292 294 295 294
199 189 191 178 191 211 222 230 246 256 177 139 199 244 215 243 266 290 303 296 295 308 322 318 309 312 313 312 312 310 309 310 309 313 317 316 315 315 315 315 314 314 314 311 309 309 308 310 313 313 313 316 318 318 317 315 312 310 309 309 308 306 305 306 307 304 300 297 294 292 290 290 292 291
216 211 212 205 216 222 216 218 222 237 241 229 253 243 221 231 240 241 258 268 280 299 309 307 305 309 310 311 311 311 314 314 312 315 316 315 317 319 321 321 319 318 315 312 311 312 314 316 317 314 310 311 314 315 317 315 313 312 313 317 318 316 311 306 305 303 302 300 296 293 290 288 289 286
222 221 220 213 223 229 223 223 220 225 239 239 246 246 231 236 238 235 237 244 271 287 296 302 304 306 308 310 313 315 316 316 317 318 318 320 321 321 323 323 323 322 320 320 319 317 315 314 314 313 309 309 311 317 321 320 317 316 315 315 316 318 316 311 306 304 303 301 297 295 292 287 286 284
224 225 227 222 221 223 227 231 228 233 241 234 237 243 234 235 236 232 237 251 276 289 295 300 302 305 308 310 313 314 315 318 322 322 322 324 324 323 323 323 324 322 319 319 318 315 312 310 310 311 310 308 310 318 323 320 317 316 313 311 311 312 316 314 308 306 306 305 300 295 292 289 285 283
227 227 230 230 226 223 225 229 233 240 241 231 237 244 236 236 238 237 251 265 277 290 296 302 304 306 308 309 311 313 317 322 322 321 323 326 325 325 324 324 323 322 320 318 315 314 312 309 307 311 313 311 311 318 321 318 316 316 311 310 310 310 314 315 311 307 305 306 306 300 295 292 286 284
227 225 226 231 231 227 226 229 237 245 245 237 242 251 251 248 248 249 256 265 273 285 293 300 304 306 307 306 307 312 318 321 320 319 321 324 326 327 326 324 324 324 322 319 317 318 317 312 309 316 321 317 314 317 319 318 316 313 308 308 311 310 309 312 313 311 307 305 306 304 300 296 290 285
229 225 223 226 228 229 230 233 239 245 249 247 244 250 257 257 258 260 255 257 272 283 290 295 298 301 303 303 306 312 317 319 318 317 317 320 325 327 327 327 327 326 323 320 321 321 320 320 321 326 325 320 317 317 317 317 315 312 310 309 311 310 305 305 307 307 307 305 304 304 301 300 297 289
231 229 226 225 224 227 230 232 235 238 242 244 241 244 253 257 261 263 257 262 275 279 283 289 294 297 298 300 307 314 317 319 318 316 316 318 322 325 326 329 329 328 325 323 323 322 322 324 324 323 320 317 317 317 316 317 317 317 318 316 313 309 301 298 300 299 302 304 305 305 302 299 297 290
232 233 231 229 226 227 230 231 233 235 237 240 242 244 249 255 260 263 265 269 277 278 279 285 291 295 296 301 311 316 318 319 317 318 319 319 321 324 326 328 330 330 327 324 323 323 322 319 316 314 315 317 319 318 317 318 318 319 321 321 315 306 296 293 296 299 301 303 304 306 304 301 297 292
232 233 234 233 231 230 231 232 233 234 236 239 242 245 249 253 256 261 265 268 273 279 281 284 289 292 297 304 310 314 317 318 317 321 324 321 322 325 325 325 326 328 327 324 324 323 320 317 314 311 315 320 319 317 317 316 315 318 323 324 317 308 300 294 295 299 304 305 303 302 301 299 298 295
232 233 234 234 235 234 233 234 234 234 236 237 239 245 247 250 253 256 260 263 270 276 278 283 288 292 298 303 308 314 320 320 319 323 324 320 321 324 322 321 323 325 326 325 323 323 322 320 317 314 318 324 320 319 321 318 315 320 325 325 321 315 309 302 300 301 303 303 301 299 297 295 293 292
232 233 235 234 236 237 236 236 234 233 234 233 234 239 239 243 250 257 262 264 268 274 279 284 289 293 296 300 308 315 319 319 318 321 323 320 320 321 319 317 320 324 325 324 322 322 322 319 315 315 321 327 327 327 328 324 320 323 324 322 320 317 311 306 303 301 300 299 297 296 294 291 288 286
233 233 235 236 237 239 238 238 236 234 236 235 235 237 238 242 248 255 263 265 268 277 282 282 288 291 290 293 303 308 311 314 316 320 323 320 319 322 320 316 318 323 325 323 318 317 318 314 309 314 325 329 332 332 328 325 323 323 322 319 315 311 306 301 298 297 296 294 292 291 290 288 284 281
232 233 236 237 238 240 241 240 240 241 244 247 248 249 251 254 257 258 260 260 263 272 277 279 281 281 282 287 294 299 305 311 314 317 319 318 320 325 322 314 315 320 323 320 313 311 315 313 307 314 329 333 332 330 326 324 321 320 321 319 315 312 306 297 293 294 294 292 290 289 287 284 282 278
231 232 235 237 238 241 243 243 244 246 250 254 256 258 259 260 260 258 256 256 257 259 265 273 274 272 276 284 288 292 301 306 308 312 314 316 319 319 314 307 306 312 318 316 307 305 313 316 312 319 331 332 329 327 323 320 320 321 324 323 321 322 316 303 296 295 297 296 292 290 287 284 281 277
230 231 233 235 237 239 243 246 246 246 250 254 257 259 261 260 258 256 254 255 256 255 256 262 266 269 272 276 280 286 293 298 304 310 310 312 313 308 305 302 300 308 316 311 299 298 310 319 320 325 330 329 326 323 318 318 322 325 325 324 322 324 321 313 305 299 296 295 292 291 289 285 282 279
229 230 232 234 236 237 240 244 245 244 246 252 256 258 257 256 256 255 255 255 254 253 253 255 261 268 269 271 278 286 288 289 294 301 304 305 304 300 300 300 301 308 315 310 299 298 311 320 323 325 329 327 323 319 316 319 325 327 325 324 323 321 318 315 312 305 296 291 290 290 290 286 282 280
231 231 232 233 236 237 238 241 243 243 242 245 251 256 258 258 258 258 260 260 254 249 249 253 263 272 273 274 281 287 285 282 283 288 295 298 298 297 299 301 303 306 312 314 309 303 308 319 325 325 328 327 321 317 317 321 327 329 326 324 324 320 315 314 315 310 298 292 293 295 295 290 283 280
232 233 233 235 236 238 239 240 242 244 243 241 243 249 256 259 259 260 264 269 265 259 256 260 268 275 277 276 279 281 281 281 284 288 292 294 295 296 298 300 302 303 310 317 314 306 309 324 329 326 326 326 319 316 319 324 329 330 328 328 328 322 314 313 315 311 301 298 301 303 300 294 287 281
234 235 236 237 238 238 240 242 242 243 243 241 241 245 251 256 258 259 262 267 271 271 269 267 268 270 270 268 270 277 283 287 289 289 288 290 293 294 293 294 297 301 310 316 315 313 317 327 330 326 324 322 317 315 319 326 332 333 331 334 334 323 316 319 320 312 304 303 306 309 305 296 290 282
235 237 238 238 237 238 241 243 243 242 241 242 243 245 250 255 258 259 260 262 266 270 266 261 259 259 258 259 265 277 289 293 291 285 283 286 288 284 282 288 296 302 306 310 316 318 318 323 327 324 320 317 314 315 322 328 333 335 334 336 334 324 324 330 327 311 305 305 309 315 310 292 284 276
235 237 240 240 239 240 243 243 242 241 241 242 244 245 248 253 257 259 261 262 265 266 256 247 248 251 254 260 268 281 292 295 290 284 284 284 279 272 277 289 298 302 303 306 313 316 315 319 320 317 315 312 313 317 323 329 333 335 334 334 331 329 335 341 334 318 312 310 313 318 310 290 263 230
232 236 240 241 241 243 246 246 244 242 243 244 245 245 244 249 255 260 262 261 264 268 259 249 249 254 259 267 275 284 289 289 287 285 283 279 270 264 272 285 292 291 292 298 306 310 310 311 310 308 305 296 302 313 321 328 333 335 333 332 330 332 343 349 343 332 324 321 325 326 306 285 236 214
231 235 238 239 240 241 246 249 247 245 245 247 247 246 245 247 253 259 261 260 264 271 269 262 260 262 267 275 281 282 280 279 284 285 278 272 269 265 269 278 284 286 290 295 299 300 300 301 299 299 297 287 289 306 318 327 331 331 332 332 331 334 344 351 351 343 331 330 343 352 332 292 241 225
228 233 237 238 241 244 247 248 246 245 245 245 247 249 249 249 251 256 262 264 267 269 269 267 267 268 271 275 277 274 269 270 277 280 272 268 270 270 272 276 278 282 289 296 298 293 290 290 290 291 292 292 295 306 316 323 327 329 331 334 334 335 343 353 2 359 342 332 343 4 34 53 225 221
230 235 240 241 244 248 250 248 245 242 241 243 247 251 253 252 254 259 263 265 266 266 266 266 266 266 267 269 272 269 264 265 273 277 273 269 270 273 278 282 282 283 289 295 295 289 282 282 285 286 288 292 297 309 316 318 322 326 328 332 335 336 341 351 2 4 353 335 323 327 54 99 224 232
237 242 243 242 244 248 251 250 245 241 240 244 249 253 255 255 257 259 262 264 265 263 262 262 263 264 266 267 270 270 265 265 272 277 275 272 275 281 289 292 292 293 296 297 295 289 282 279 280 282 284 288 295 305 310 312 317 321 324 329 334 337 341 348 355 2 5 354 316 283 278 326 300 255
238 245 247 247 247 251 254 252 245 241 242 246 250 253 255 255 255 256 259 263 262 259 258 260 261 265 266 267 272 275 270 264 267 273 275 276 282 290 295 296 294 296 298 298 295 291 285 278 275 275 279 295 303 303 303 307 313 318 323 330 333 335 340 347 351 357 2 0 339 300 280 290 306 300
235 241 250 257 260 263 264 259 251 246 247 248 250 251 252 253 255 258 260 261 258 257 258 261 262 266 269 270 274 276 269 260 260 266 271 275 280 288 293 293 293 296 300 301 300 296 288 274 268 268 278 306 308 303 303 308 314 320 327 332 333 332 337 344 347 350 353 356 353 336 300 279 283 307
236 238 246 257 264 268 269 268 264 259 257 256 256 255 256 258 260 261 261 260 260 260 261 263 266 269 272 273 274 271 264 257 257 263 268 269 274 283 290 289 290 295 301 304 306 304 291 267 262 268 290 316 311 302 307 319 322 324 330 335 333 328 330 337 342 345 348 351 354 350 349 11 4 339
242 243 248 256 263 268 270 272 272 270 267 266 265 263 263 264 265 264 262 259 259 260 261 263 267 269 269 269 269 267 261 256 257 263 266 265 269 278 285 285 288 294 296 298 306 309 292 275 279 288 314 325 310 299 311 331 332 330 333 336 333 328 328 332 336 340 344 347 348 347 353 27 25 6
251 252 253 257 260 263 265 266 267 267 266 266 264 265 265 264 262 262 260 258 258 259 259 260 263 265 266 267 265 262 259 256 260 264 263 260 263 270 275 280 285 289 288 291 306 313 297 271 248 294 332 334 316 305 317 334 334 335 338 337 334 330 327 330 334 339 342 344 342 341 351 44 38 7
248 248 253 257 257 256 255 255 255 255 254 255 258 263 266 263 259 256 256 258 261 262 260 260 261 263 264 264 262 257 254 256 262 265 260 254 254 258 267 277 281 285 287 292 306 310 299 258 176 325 346 344 324 311 317 332 335 340 341 339 337 331 325 328 337 340 341 343 338 333 342 35 34 348
228 230 242 253 252 246 244 244 245 247 248 251 256 261 264 264 259 254 254 258 261 261 261 261 262 262 261 260 258 253 251 255 262 264 256 248 247 250 261 273 279 284 290 292 296 302 300 280 224 1 7 357 327 309 304 325 340 346 343 342 344 339 330 330 337 339 339 344 343 337 344 14 14 344
225 223 234 245 249 250 251 251 251 251 250 253 259 260 260 261 260 258 262 267 267 263 260 259 261 261 259 257 254 251 251 255 258 257 249 241 242 249 258 271 279 283 287 290 295 305 307 297 279 48 47 25 343 316 294 321 339 343 343 346 349 347 339 335 337 342 344 348 349 344 346 350 343 334
232 232 239 248 255 259 263 267 268 266 265 270 274 271 265 263 265 270 277 279 273 267 261 257 258 259 257 254 250 247 251 254 252 251 246 239 241 250 256 269 280 285 294 305 311 311 305 293 266 138 100 89 29 315 300 318 324 326 339 348 348 350 348 341 337 343 349 353 358 356 345 333 331 336
239 242 246 253 260 263 266 270 274 277 279 281 283 281 277 275 277 278 278 272 267 265 262 257 255 255 253 252 249 245 248 250 247 247 245 239 238 244 251 264 279 292 308 315 313 307 303 294 254 138 112 124 149 245 284 306 307 309 337 348 344 350 355 349 338 338 344 349 355 354 347 346 356 6
245 246 247 252 257 261 265 268 270 271 272 272 273 274 273 273 275 276 273 267 261 259 256 253 251 250 248 248 248 246 247 247 244 242 241 236 233 238 248 262 280 300 311 312 305 302 306 308 122 113 96 196 216 263 281 297 298 300 336 344 340 348 356 351 342 340 345 348 348 342 335 339 353 7
252 252 253 255 258 259 261 262 263 264 267 271 276 277 275 274 275 276 278 276 268 261 255 247 241 242 247 248 248 248 249 249 245 242 239 235 232 234 242 257 276 292 301 302 297 296 299 327 88 48 323 198 320 317 303 300 304 311 336 340 340 345 351 350 350 352 352 351 352 351 342 338 342 352
252 252 252 254 255 258 260 261 261 266 274 281 284 286 287 288 286 285 286 287 286 286 281 264 246 246 254 252 249 250 250 248 245 242 240 238 235 236 241 250 263 275 282 283 286 292 298 309 11 29 79 85 11 345 333 324 339 346 341 338 339 343 347 348 351 357 359 354 355 359 356 348 348 354
256 260 264 262 262 267 272 275 281 294 303 304 302 302 303 300 298 300 302 302 302 301 292 276 264 266 268 261 256 256 253 247 243 242 243 241 238 239 242 244 249 259 267 274 283 298 309 307 288 179 102 64 24 21 28 17 339 333 340 339 336 342 349 345 345 354 5 6 4 7 6 357 354 355
335 340 345 350 351 349 344 341 342 343 340 334 329 324 320 318 317 318 317 315 316 316 302 282 270 270 271 270 269 264 257 250 246 247 249 245 238 236 236 236 242 255 268 281 289 297 305 304 286 197 144 84 49 68 46 8 331 326 345 347 338 343 349 341 339 356 15 21 17 14 11 1 341 332
5 3 7 11 8 1 355 352 352 349 344 341 338 334 331 331 331 330 328 327 330 332 329 320 308 292 279 277 277 270 261 257 255 256 255 249 240 236 233 231 241 255 266 281 289 289 299 307 303 249 169 134 11 188 184 161 1 354 353 348 346 353 354 342 343 9 32 39 37 30 30 38 17 334
357 4 12 10 3 359 357 355 353 347 342 340 337 334 335 341 344 345 345 344 340 335 330 326 320 309 294 288 284 275 266 265 263 260 258 251 241 235 233 233 241 255 264 276 285 288 298 309 312 305 246 203 215 211 194 176 134 14 343 345 353 1 359 351 355 14 34 46 49 43 43 65 96 116